TimeWET,TemperatureF,Dew PointF,Humidity,Sea Level PressureIn,VisibilityMPH,Wind Direction,Wind SpeedMPH,Gust SpeedMPH,PrecipitationIn,Events,Conditions,WindDirDegrees,DateUTC
12:00 AM,58,51,70,29.88,4,South,6.9,,,,Partly Cloudy,190,2013-03-03 00:00:00
12:00 AM,57.2,50.0,77,29.86,3.7,South,6.9,-,N/A,,Mostly Cloudy,190,2013-03-03 00:00:00
12:30 AM,55.4,51.8,88,29.89,3.7,Calm,Calm,-,N/A,,Mostly Cloudy,0,2013-03-03 00:30:00
1:00 AM,55.4,51.8,88,29.89,3.7,Calm,Calm,-,N/A,,Mostly Cloudy,0,2013-03-03 01:00:00
1:30 AM,55.4,50.0,82,29.86,-9999.0,Calm,Calm,-,N/A,,Unknown,0,2013-03-03 01:30:00
2:00 AM,55.4,51.8,88,29.89,-9999.0,Calm,Calm,-,N/A,,Unknown,0,2013-03-03 02:00:00
2:30 AM,55.4,50.0,82,29.86,3.7,Calm,Calm,-,N/A,,Mostly Cloudy,0,2013-03-03 02:30:00
3:00 AM,56,49,71,29.88,4,Calm,Calm,,,,Partly Cloudy,,2013-03-03 03:00:00
3:00 AM,55.4,50.0,82,29.86,3.7,Calm,Calm,-,N/A,,Mostly Cloudy,0,2013-03-03 03:00:00
3:30 AM,55.4,50.0,82,29.86,-9999.0,Calm,Calm,-,N/A,,Unknown,0,2013-03-03 03:30:00
4:00 AM,55.4,50.0,82,29.86,3.7,Calm,Calm,-,N/A,,Mostly Cloudy,0,2013-03-03 04:00:00
4:30 AM,55.4,50.0,82,29.86,3.7,SSE,4.6,-,N/A,,Mostly Cloudy,150,2013-03-03 04:30:00
5:00 AM,55.4,48.2,77,29.83,3.7,SE,4.6,-,N/A,,Mostly Cloudy,140,2013-03-03 05:00:00
5:30 AM,57.2,50.0,77,29.86,3.7,South,4.6,-,N/A,,Mostly Cloudy,170,2013-03-03 05:30:00
6:00 AM,57,49,67,29.86,4,SSE,4.6,,,,Partly Cloudy,160,2013-03-03 06:00:00
6:00 AM,57.2,48.2,72,29.86,3.7,SSE,4.6,-,N/A,,Mostly Cloudy,160,2013-03-03 06:00:00
6:30 AM,57.2,50.0,77,29.86,3.7,SSE,4.6,-,N/A,,Mostly Cloudy,150,2013-03-03 06:30:00
7:00 AM,57.2,50.0,77,29.83,3.7,SE,3.5,-,N/A,,Mostly Cloudy,140,2013-03-03 07:00:00
7:30 AM,57.2,50.0,77,29.86,6.2,SSE,3.5,-,N/A,,Scattered Clouds,160,2013-03-03 07:30:00
8:00 AM,57.2,50.0,77,29.86,6.2,SSE,4.6,-,N/A,,Scattered Clouds,160,2013-03-03 08:00:00
8:30 AM,59.0,51.8,77,29.86,6.2,South,6.9,-,N/A,,Mostly Cloudy,170,2013-03-03 08:30:00
9:00 AM,61,52,65,29.86,6,Calm,Calm,,,,Partly Cloudy,,2013-03-03 09:00:00
9:00 AM,60.8,51.8,72,29.86,6.2,Calm,Calm,-,N/A,,Mostly Cloudy,0,2013-03-03 09:00:00
9:30 AM,62.6,51.8,68,29.86,6.2,South,6.9,-,N/A,,Scattered Clouds,190,2013-03-03 09:30:00
10:00 AM,64.4,53.6,68,29.86,6.2,South,9.2,-,N/A,,Scattered Clouds,190,2013-03-03 10:00:00
10:30 AM,64.4,53.6,68,29.83,6.2,South,10.4,-,N/A,,Scattered Clouds,190,2013-03-03 10:30:00
11:00 AM,66.2,53.6,64,29.83,6.2,SSW,9.2,-,N/A,,Scattered Clouds,200,2013-03-03 11:00:00
11:30 AM,66.2,53.6,64,29.83,6.2,South,8.1,-,N/A,,Mostly Cloudy,180,2013-03-03 11:30:00
12:00 PM,66,53,52,29.83,6,SSW,10.4,,,,Mostly Cloudy,200,2013-03-03 12:00:00
12:00 PM,66.2,53.6,64,29.83,6.2,SSW,10.4,-,N/A,,Mostly Cloudy,200,2013-03-03 12:00:00
12:30 PM,66.2,51.8,60,29.80,6.2,SW,6.9,-,N/A,,Mostly Cloudy,230,2013-03-03 12:30:00
1:00 PM,66.2,51.8,60,29.80,6.2,SW,9.2,-,N/A,,Scattered Clouds,230,2013-03-03 13:00:00
1:30 PM,66.2,51.8,60,29.77,6.2,Variable,3.5,-,N/A,,Scattered Clouds,0,2013-03-03 13:30:00
2:00 PM,68.0,51.8,56,29.77,6.2,West,4.6,-,N/A,,Scattered Clouds,280,2013-03-03 14:00:00
2:30 PM,68.0,53.6,60,29.74,6.2,NW,8.1,-,N/A,,Scattered Clouds,320,2013-03-03 14:30:00
3:00 PM,67,53,51,29.75,6,NW,8.1,,,,Mostly Cloudy,310,2013-03-03 15:00:00
3:00 PM,66.2,53.6,64,29.74,6.2,NW,8.1,-,N/A,,Mostly Cloudy,310,2013-03-03 15:00:00
3:30 PM,66.2,51.8,60,29.74,6.2,NNW,8.1,-,N/A,,Mostly Cloudy,330,2013-03-03 15:30:00
4:00 PM,64.4,53.6,68,29.74,6.2,NNW,6.9,-,N/A,,Mostly Cloudy,330,2013-03-03 16:00:00
4:30 PM,64.4,51.8,64,29.71,6.2,North,5.8,-,N/A,,Mostly Cloudy,350,2013-03-03 16:30:00
5:00 PM,64.4,51.8,64,29.71,6.2,Calm,Calm,-,N/A,,Mostly Cloudy,0,2013-03-03 17:00:00
5:30 PM,62.6,53.6,72,29.71,6.2,Calm,Calm,-,N/A,,Mostly Cloudy,0,2013-03-03 17:30:00
6:00 PM,62,53,65,29.72,6,NNE,1.2,,,,Overcast,20,2013-03-03 18:00:00
6:00 PM,62.6,53.6,72,29.71,6.2,NNE,1.2,-,N/A,,Mostly Cloudy,20,2013-03-03 18:00:00
6:30 PM,60.8,51.8,72,29.68,6.2,Calm,Calm,-,N/A,,Mostly Cloudy,0,2013-03-03 18:30:00
7:00 PM,60.8,51.8,72,29.68,6.2,Calm,Calm,-,N/A,,Mostly Cloudy,0,2013-03-03 19:00:00
7:30 PM,59.0,51.8,77,29.65,6.2,Calm,Calm,-,N/A,,Mostly Cloudy,0,2013-03-03 19:30:00
8:00 PM,59.0,51.8,77,29.65,6.2,Calm,Calm,-,N/A,,Mostly Cloudy,0,2013-03-03 20:00:00
8:30 PM,59.0,51.8,77,29.65,5.0,Calm,Calm,-,N/A,,Mostly Cloudy,0,2013-03-03 20:30:00
9:00 PM,59,52,70,29.66,5,Calm,Calm,,,,Overcast,,2013-03-03 21:00:00
9:00 PM,59.0,51.8,77,29.65,5.0,Calm,Calm,-,N/A,,Mostly Cloudy,0,2013-03-03 21:00:00
9:30 PM,59.0,51.8,77,29.62,5.0,Calm,Calm,-,N/A,,Mostly Cloudy,0,2013-03-03 21:30:00
10:00 PM,59.0,51.8,77,29.62,5.0,Variable,1.2,-,N/A,,Mostly Cloudy,0,2013-03-03 22:00:00
10:30 PM,59.0,51.8,77,29.59,3.7,Calm,Calm,-,N/A,,Mostly Cloudy,0,2013-03-03 22:30:00
11:00 PM,57.2,51.8,82,29.59,3.7,Calm,Calm,-,N/A,,Mostly Cloudy,0,2013-03-03 23:00:00